| time (UTC) | temp C | wind direction | speed KPH | gust KPH | rain 1hr cm | rain 24hr cm | rain mn cm | humidity % | barometer mb |
| 20260508213012 | 15 | 210 | 16.1 | 25.7 | 0.00 | 0.00 | 0.00 | 24 | 1008.0 |
| 20260508212513 | 15 | 196 | 3.2 | 24.1 | 0.00 | 0.00 | 0.00 | 24 | 1008.0 |
| 20260508211513 | 15 | 200 | 9.7 | 25.7 | 0.00 | 0.00 | 0.00 | 23 | 1007.8 |
| 20260508211012 | 15 | 222 | 9.7 | 22.5 | 0.00 | 0.00 | 0.00 | 22 | 1007.8 |
| 20260508210512 | 15 | 252 | 6.4 | 20.9 | 0.00 | 0.00 | 0.00 | 22 | 1007.9 |
| 20260508210015 | 15 | 226 | 6.4 | 25.7 | 0.00 | 0.00 | 0.00 | 21 | 1007.6 |
| 20260508205513 | 16 | 191 | 6.4 | 25.7 | 0.00 | 0.00 | 0.00 | 21 | 1007.5 |
| 20260508204513 | 16 | 213 | 9.7 | 27.4 | 0.00 | 0.00 | 0.00 | 21 | 1007.7 |
| 20260508204013 | 16 | 47 | 6.4 | 27.4 | 0.00 | 0.00 | 0.00 | 21 | 1007.5 |
| 20260508203514 | 16 | 90 | 9.7 | 27.4 | 0.00 | 0.00 | 0.00 | 21 | 1007.5 |
| 20260508202013 | 16 | 170 | 8.0 | 38.6 | 0.00 | 0.00 | 0.00 | 21 | 1007.0 |
| 20260508201513 | 16 | 188 | 9.7 | 25.7 | 0.00 | 0.00 | 0.00 | 23 | 1007.2 |
| 20260508201012 | 16 | 178 | 11.3 | 25.7 | 0.00 | 0.00 | 0.00 | 22 | 1007.0 |
| 20260508200513 | 16 | 176 | 11.3 | 32.2 | 0.00 | 0.00 | 0.00 | 22 | 1006.9 |
| 20260508200013 | 17 | 192 | 12.9 | 33.8 | 0.00 | 0.00 | 0.00 | 23 | 1007.1 |
| 20260508195512 | 17 | 219 | 12.9 | 33.8 | 0.00 | 0.00 | 0.00 | 22 | 1007.1 |
| 20260508195016 | 17 | 226 | 17.7 | 32.2 | 0.00 | 0.00 | 0.00 | 23 | 1007.3 |
| 20260508194513 | 17 | 215 | 12.9 | 24.1 | 0.00 | 0.00 | 0.00 | 24 | 1007.2 |
| 20260508194013 | 17 | 164 | 6.4 | 37.0 | 0.00 | 0.00 | 0.00 | 25 | 1007.2 |
| 20260508193512 | 17 | 174 | 6.4 | 38.6 | 0.00 | 0.00 | 0.00 | 25 | 1007.3 |
| 20260508192513 | 16 | 100 | 11.3 | 29.0 | 0.00 | 0.00 | 0.00 | 25 | 1007.0 |
| 20260508192014 | 17 | 205 | 6.4 | 29.0 | 0.00 | 0.00 | 0.00 | 25 | 1007.3 |
| 20260508191513 | 16 | 217 | 6.4 | 29.0 | 0.00 | 0.00 | 0.00 | 26 | 1007.3 |
| 20260508191013 | 16 | 113 | 6.4 | 25.7 | 0.00 | 0.00 | 0.00 | 25 | 1007.4 |
| 20260508190513 | 16 | 118 | 6.4 | 27.4 | 0.00 | 0.00 | 0.00 | 27 | 1007.5 |
| 20260508190012 | 16 | 171 | 11.3 | 27.4 | 0.00 | 0.00 | 0.00 | 27 | 1007.6 |
| 20260508185513 | 16 | 156 | 19.3 | 27.4 | 0.00 | 0.00 | 0.00 | 27 | 1007.7 |
| 20260508185013 | 17 | 186 | 11.3 | 22.5 | 0.00 | 0.00 | 0.00 | 27 | 1007.6 |
| 20260508184513 | 16 | 233 | 6.4 | 27.4 | 0.00 | 0.00 | 0.00 | 28 | 1007.5 |
| 20260508184013 | 16 | 197 | 11.3 | 27.4 | 0.00 | 0.00 | 0.00 | 29 | 1007.7 |
| 20260508183512 | 16 | 85 | 11.3 | 25.7 | 0.00 | 0.00 | 0.00 | 30 | 1007.6 |
| 20260508182514 | 16 | 99 | 6.4 | 25.7 | 0.00 | 0.00 | 0.00 | 30 | 1008.0 |
| 20260508181513 | 16 | 268 | 4.8 | 25.7 | 0.00 | 0.00 | 0.00 | 30 | 1008.0 |
| 20260508181012 | 16 | 227 | 6.4 | 25.7 | 0.00 | 0.00 | 0.00 | 30 | 1008.3 |
| 20260508180512 | 16 | 257 | 9.7 | 24.1 | 0.00 | 0.00 | 0.00 | 30 | 1008.0 |
| 20260508180013 | 16 | 256 | 6.4 | 29.0 | 0.00 | 0.00 | 0.00 | 30 | 1008.3 |
| 20260508175512 | 16 | 245 | 6.4 | 29.0 | 0.00 | 0.00 | 0.00 | 31 | 1008.4 |
| 20260508175013 | 16 | 263 | 8.0 | 29.0 | 0.00 | 0.00 | 0.00 | 30 | 1008.1 |
| 20260508174512 | 16 | 254 | 3.2 | 33.8 | 0.00 | 0.00 | 0.00 | 31 | 1008.3 |
| 20260508174013 | 16 | 167 | 8.0 | 33.8 | 0.00 | 0.00 | 0.00 | 31 | 1008.2 |
| 20260508173513 | 16 | 345 | 6.4 | 22.5 | 0.00 | 0.00 | 0.00 | 31 | 1008.1 |
| 20260508173013 | 16 | 347 | 6.4 | 25.7 | 0.00 | 0.00 | 0.00 | 32 | 1008.2 |
| 20260508172513 | 15 | 350 | 4.8 | 25.7 | 0.00 | 0.00 | 0.00 | 33 | 1008.4 |
| 20260508171513 | 15 | 114 | 9.7 | 25.7 | 0.00 | 0.00 | 0.00 | 34 | 1008.3 |
| 20260508171012 | 16 | 60 | 6.4 | 17.7 | 0.00 | 0.00 | 0.00 | 34 | 1008.7 |
| 20260508170012 | 15 | 192 | 4.8 | 35.4 | 0.00 | 0.00 | 0.00 | 35 | 1008.6 |
| 20260508165513 | 14 | 213 | 17.7 | 35.4 | 0.00 | 0.00 | 0.00 | 37 | 1008.6 |
| 20260508165013 | 15 | 151 | 11.3 | 32.2 | 0.00 | 0.00 | 0.00 | 36 | 1008.9 |
| 20260508163512 | 15 | 198 | 6.4 | 25.7 | 0.00 | 0.03 | 0.00 | 37 | 1009.1 |
| 20260508163013 | 15 | 179 | 9.7 | 29.0 | 0.00 | 0.03 | 0.00 | 36 | 1009.0 |
| 20260508162012 | 15 | 96 | 4.8 | 17.7 | 0.00 | 0.05 | 0.00 | 38 | 1009.3 |
| 20260508161514 | 15 | 169 | 6.4 | 29.0 | 0.00 | 0.05 | 0.00 | 38 | 1009.5 |
| 20260508161012 | 13 | 193 | 4.8 | 29.0 | 0.00 | 0.05 | 0.00 | 39 | 1009.3 |
| 20260508160513 | 14 | 206 | 6.4 | 25.7 | 0.00 | 0.05 | 0.00 | 38 | 1009.7 |
| 20260508160012 | 14 | 205 | 9.7 | 24.1 | 0.00 | 0.05 | 0.00 | 38 | 1009.6 |
| 20260508155513 | 14 | 3 | 9.7 | 33.8 | 0.00 | 0.05 | 0.00 | 39 | 1010.0 |
| 20260508154512 | 15 | 297 | 4.8 | 29.0 | 0.00 | 0.13 | 0.00 | 39 | 1009.8 |
| 20260508154013 | 14 | 170 | 4.8 | 29.0 | 0.00 | 0.15 | 0.00 | 40 | 1010.2 |
| 20260508153513 | 13 | 151 | 9.7 | 25.7 | 0.00 | 0.15 | 0.00 | 39 | 1009.9 |
| 20260508151513 | 13 | 144 | 16.1 | 32.2 | 0.00 | 0.15 | 0.00 | 41 | 1010.4 |
| 20260508151012 | 13 | 276 | 4.8 | 22.5 | 0.00 | 0.15 | 0.00 | 40 | 1010.7 |
| 20260508150013 | 13 | 154 | 9.7 | 40.2 | 0.00 | 0.15 | 0.00 | 42 | 1010.8 |
| 20260508145512 | 13 | 175 | 6.4 | 22.5 | 0.00 | 0.15 | 0.00 | 41 | 1011.0 |
| 20260508145013 | 13 | 148 | 6.4 | 32.2 | 0.00 | 0.15 | 0.00 | 41 | 1010.8 |
| 20260508144512 | 13 | 176 | 8.0 | 32.2 | 0.00 | 0.15 | 0.00 | 43 | 1010.8 |
| 20260508144014 | 13 | 187 | 3.2 | 29.0 | 0.00 | 0.15 | 0.00 | 43 | 1010.7 |
| 20260508143512 | 12 | 169 | 4.8 | 32.2 | 0.00 | 0.15 | 0.00 | 43 | 1010.7 |
| 20260508143013 | 12 | 201 | 6.4 | 32.2 | 0.00 | 0.15 | 0.00 | 44 | 1010.7 |
| 20260508142512 | 12 | 225 | 12.9 | 29.0 | 0.00 | 0.15 | 0.00 | 44 | 1010.5 |
| 20260508142013 | 12 | 214 | 8.0 | 40.2 | 0.00 | 0.15 | 0.00 | 44 | 1010.4 |
| 20260508141512 | 12 | 217 | 12.9 | 40.2 | 0.00 | 0.15 | 0.00 | 45 | 1010.5 |
| 20260508141012 | 12 | 220 | 11.3 | 38.6 | 0.00 | 0.15 | 0.00 | 44 | 1010.4 |
| 20260508140513 | 12 | 196 | 12.9 | 33.8 | 0.00 | 0.15 | 0.00 | 44 | 1010.6 |
| 20260508140013 | 12 | 191 | 8.0 | 40.2 | 0.00 | 0.18 | 0.00 | 44 | 1011.0 |
| 20260508135512 | 11 | 191 | 17.7 | 40.2 | 0.00 | 0.18 | 0.00 | 45 | 1010.7 |
| 20260508135013 | 11 | 185 | 17.7 | 40.2 | 0.00 | 0.18 | 0.00 | 44 | 1010.6 |
| 20260508134512 | 11 | 184 | 6.4 | 40.2 | 0.00 | 0.18 | 0.00 | 45 | 1010.6 |
| 20260508134012 | 12 | 192 | 6.4 | 37.0 | 0.00 | 0.18 | 0.00 | 44 | 1010.6 |
| 20260508133512 | 11 | 200 | 12.9 | 37.0 | 0.00 | 0.18 | 0.00 | 46 | 1010.6 |
| 20260508133013 | 11 | 197 | 8.0 | 33.8 | 0.00 | 0.18 | 0.00 | 46 | 1010.8 |
| 20260508132513 | 11 | 193 | 17.7 | 33.8 | 0.00 | 0.18 | 0.00 | 47 | 1010.6 |
| 20260508131512 | 11 | 186 | 16.1 | 33.8 | 0.00 | 0.18 | 0.00 | 47 | 1010.4 |
| 20260508131012 | 10 | 184 | 19.3 | 33.8 | 0.00 | 0.18 | 0.00 | 48 | 1010.8 |
| 20260508130512 | 10 | 171 | 12.9 | 29.0 | 0.00 | 0.18 | 0.00 | 48 | 1010.7 |
| 20260508130012 | 10 | 146 | 9.7 | 24.1 | 0.00 | 0.18 | 0.00 | 49 | 1010.6 |
| 20260508125513 | 10 | 162 | 6.4 | 24.1 | 0.00 | 0.18 | 0.00 | 49 | 1010.6 |
| 20260508124512 | 10 | 251 | 8.0 | 29.0 | 0.00 | 0.18 | 0.00 | 49 | 1010.6 |
| 20260508124012 | 10 | 158 | 11.3 | 29.0 | 0.00 | 0.18 | 0.00 | 49 | 1010.7 |
| 20260508123512 | 10 | 182 | 9.7 | 29.0 | 0.00 | 0.18 | 0.00 | 50 | 1010.5 |
| 20260508123013 | 10 | 214 | 6.4 | 25.7 | 0.00 | 0.18 | 0.00 | 50 | 1010.2 |
| 20260508122512 | 10 | 84 | 8.0 | 20.9 | 0.00 | 0.18 | 0.00 | 51 | 1010.6 |
| 20260508122012 | 9 | 95 | 8.0 | 20.9 | 0.00 | 0.18 | 0.00 | 52 | 1010.3 |
| 20260508121514 | 9 | 168 | 9.7 | 20.9 | 0.00 | 0.18 | 0.00 | 54 | 1010.5 |
| 20260508121012 | 9 | 149 | 3.2 | 25.7 | 0.00 | 0.18 | 0.00 | 55 | 1010.5 |
| 20260508115513 | 8 | 191 | 11.3 | 27.4 | 0.00 | 0.18 | 0.00 | 58 | 1010.3 |
| 20260508115012 | 8 | 165 | 3.2 | 14.5 | 0.00 | 0.18 | 0.00 | 58 | 1010.3 |
| 20260508114513 | 8 | 138 | 4.8 | 17.7 | 0.00 | 0.18 | 0.00 | 58 | 1010.2 |
| 20260508114012 | 8 | 130 | 6.4 | 17.7 | 0.00 | 0.18 | 0.00 | 58 | 1010.3 |
| 20260508113512 | 8 | 148 | 6.4 | 17.7 | 0.00 | 0.18 | 0.00 | 58 | 1009.8 |
| 20260508112513 | 8 | 167 | 6.4 | 24.1 | 0.00 | 0.18 | 0.00 | 58 | 1009.8 |
| 20260508112012 | 8 | 163 | 6.4 | 24.1 | 0.00 | 0.18 | 0.00 | 58 | 1009.5 |
| 20260508111012 | 8 | 134 | 3.2 | 17.7 | 0.00 | 0.18 | 0.00 | 58 | 1009.7 |
| 20260508110512 | 8 | 120 | 3.2 | 17.7 | 0.00 | 0.18 | 0.00 | 58 | 1009.5 |
| 20260508110012 | 8 | 68 | 3.2 | 17.7 | 0.00 | 0.18 | 0.00 | 57 | 1009.4 |
| 20260508105512 | 8 | 115 | 4.8 | 14.5 | 0.00 | 0.18 | 0.00 | 57 | 1009.4 |
| 20260508105012 | 8 | 121 | 3.2 | 14.5 | 0.00 | 0.18 | 0.00 | 56 | 1009.2 |
| 20260508104512 | 8 | 132 | 3.2 | 14.5 | 0.00 | 0.18 | 0.00 | 55 | 1009.1 |
| 20260508104013 | 8 | 142 | 4.8 | 14.5 | 0.00 | 0.18 | 0.00 | 54 | 1008.9 |
| 20260508103512 | 8 | 163 | 3.2 | 17.7 | 0.00 | 0.18 | 0.00 | 53 | 1009.0 |
| 20260508103012 | 8 | 204 | 6.4 | 29.0 | 0.00 | 0.18 | 0.00 | 52 | 1008.6 |
| 20260508102512 | 8 | 182 | 11.3 | 29.0 | 0.00 | 0.18 | 0.00 | 51 | 1008.6 |
| 20260508102012 | 9 | 183 | 14.5 | 32.2 | 0.00 | 0.18 | 0.00 | 51 | 1008.5 |
| 20260508101011 | 9 | 190 | 12.9 | 33.8 | 0.00 | 0.18 | 0.00 | 50 | 1008.4 |
| 20260508100512 | 9 | 197 | 17.7 | 38.6 | 0.00 | 0.18 | 0.00 | 50 | 1008.1 |
| 20260508100012 | 9 | 204 | 16.1 | 38.6 | 0.00 | 0.18 | 0.00 | 49 | 1008.3 |
| 20260508095511 | 9 | 207 | 19.3 | 43.5 | 0.00 | 0.18 | 0.00 | 49 | 1008.0 |
| 20260508095012 | 9 | 197 | 20.9 | 43.5 | 0.00 | 0.18 | 0.00 | 50 | 1008.3 |
| 20260508094512 | 9 | 195 | 24.1 | 43.5 | 0.00 | 0.18 | 0.00 | 50 | 1008.1 |
| 20260508094011 | 9 | 200 | 11.3 | 35.4 | 0.00 | 0.18 | 0.00 | 52 | 1008.2 |
| 20260508093512 | 9 | 187 | 16.1 | 35.4 | 0.00 | 0.18 | 0.00 | 53 | 1008.0 |
| 20260508093012 | 8 | 161 | 14.5 | 38.6 | 0.00 | 0.18 | 0.00 | 53 | 1008.0 |
| 20260508092012 | 8 | 181 | 16.1 | 38.6 | 0.00 | 0.18 | 0.00 | 54 | 1008.0 |
| 20260508091512 | 8 | 185 | 14.5 | 43.5 | 0.00 | 0.18 | 0.00 | 56 | 1007.8 |
| 20260508091012 | 8 | 168 | 9.7 | 43.5 | 0.00 | 0.18 | 0.00 | 57 | 1007.7 |
| 20260508090012 | 8 | 210 | 12.9 | 35.4 | 0.00 | 0.18 | 0.00 | 58 | 1007.5 |
| 20260508084512 | 8 | 183 | 14.5 | 32.2 | 0.00 | 0.18 | 0.00 | 60 | 1007.2 |
| 20260508084013 | 8 | 185 | 9.7 | 32.2 | 0.00 | 0.18 | 0.00 | 60 | 1007.1 |
| 20260508083513 | 8 | 185 | 12.9 | 27.4 | 0.00 | 0.18 | 0.00 | 60 | 1007.0 |
| 20260508082512 | 8 | 188 | 9.7 | 22.5 | 0.00 | 0.18 | 0.00 | 60 | 1007.0 |
| 20260508081512 | 8 | 204 | 9.7 | 32.2 | 0.00 | 0.20 | 0.00 | 59 | 1007.0 |
| 20260508081013 | 8 | 208 | 16.1 | 32.2 | 0.00 | 0.20 | 0.00 | 59 | 1007.1 |
| 20260508080512 | 9 | 201 | 11.3 | 27.4 | 0.00 | 0.20 | 0.00 | 58 | 1007.1 |
| 20260508080012 | 9 | 191 | 16.1 | 29.0 | 0.00 | 0.20 | 0.00 | 58 | 1007.3 |
| 20260508075512 | 9 | 185 | 17.7 | 29.0 | 0.00 | 0.20 | 0.00 | 58 | 1006.9 |
| 20260508075012 | 9 | 189 | 11.3 | 29.0 | 0.00 | 0.20 | 0.00 | 58 | 1006.9 |
| 20260508074511 | 9 | 191 | 16.1 | 29.0 | 0.00 | 0.23 | 0.00 | 57 | 1007.1 |
| 20260508074012 | 9 | 186 | 11.3 | 35.4 | 0.00 | 0.33 | 0.00 | 57 | 1006.9 |
| 20260508073512 | 9 | 181 | 12.9 | 35.4 | 0.00 | 0.33 | 0.00 | 59 | 1006.9 |
| 20260508072512 | 10 | 188 | 19.3 | 32.2 | 0.00 | 0.33 | 0.00 | 58 | 1007.0 |
| 20260508072011 | 9 | 201 | 12.9 | 32.2 | 0.00 | 0.33 | 0.00 | 59 | 1006.9 |
| 20260508071511 | 10 | 199 | 9.7 | 29.0 | 0.00 | 0.33 | 0.00 | 59 | 1007.0 |
| 20260508071012 | 9 | 190 | 12.9 | 29.0 | 0.00 | 0.33 | 0.00 | 60 | 1006.9 |
| 20260508070512 | 9 | 190 | 17.7 | 29.0 | 0.00 | 0.33 | 0.00 | 60 | 1007.0 |
| 20260508070012 | 10 | 182 | 12.9 | 24.1 | 0.00 | 0.33 | 0.00 | 60 | 1007.0 |
| 20260508065512 | 10 | 194 | 9.7 | 24.1 | 0.00 | 0.33 | 0.00 | 60 | 1006.9 |
| 20260508065012 | 10 | 204 | 17.7 | 25.7 | 0.00 | 0.33 | 0.00 | 59 | 1006.9 |
| 20260508064511 | 10 | 198 | 12.9 | 27.4 | 0.00 | 0.33 | 0.00 | 59 | 1007.0 |
| 20260508064012 | 10 | 185 | 17.7 | 32.2 | 0.00 | 0.33 | 0.00 | 58 | 1007.0 |
| 20260508063512 | 10 | 183 | 11.3 | 35.4 | 0.00 | 0.33 | 0.00 | 58 | 1007.0 |
| 20260508063011 | 10 | 191 | 6.4 | 35.4 | 0.00 | 0.33 | 0.00 | 57 | 1006.9 |
| 20260508062513 | 10 | 208 | 12.9 | 29.0 | 0.00 | 0.33 | 0.00 | 57 | 1006.9 |
| 20260508062013 | 10 | 206 | 11.3 | 35.4 | 0.00 | 0.33 | 0.00 | 56 | 1006.6 |
| 20260508061512 | 10 | 202 | 17.7 | 35.4 | 0.00 | 0.33 | 0.00 | 56 | 1007.0 |
| 20260508061011 | 10 | 204 | 11.3 | 25.7 | 0.00 | 0.33 | 0.00 | 57 | 1007.2 |
| 20260508060512 | 10 | 204 | 11.3 | 24.1 | 0.00 | 0.33 | 0.00 | 56 | 1007.1 |
| 20260508055512 | 10 | 189 | 12.9 | 29.0 | 0.00 | 0.33 | 0.00 | 56 | 1007.5 |
| 20260508055012 | 10 | 182 | 17.7 | 29.0 | 0.00 | 0.33 | 0.00 | 56 | 1007.5 |
| 20260508054513 | 10 | 181 | 12.9 | 25.7 | 0.00 | 0.33 | 0.00 | 57 | 1007.3 |
| 20260508054012 | 10 | 188 | 8.0 | 29.0 | 0.00 | 0.33 | 0.00 | 57 | 1007.5 |
| 20260508053512 | 10 | 178 | 6.4 | 29.0 | 0.00 | 0.33 | 0.00 | 58 | 1007.4 |
| 20260508053012 | 10 | 186 | 6.4 | 20.9 | 0.00 | 0.33 | 0.00 | 59 | 1007.6 |
| 20260508052012 | 10 | 289 | 3.2 | 12.9 | 0.00 | 0.33 | 0.00 | 64 | 1007.6 |
| 20260508051511 | 9 | 247 | 1.6 | 6.4 | 0.00 | 0.33 | 0.00 | 65 | 1007.6 |
| 20260508051012 | 9 | 282 | 1.6 | 9.7 | 0.00 | 0.33 | 0.00 | 65 | 1007.7 |
| 20260508050511 | 9 | 297 | 3.2 | 9.7 | 0.00 | 0.33 | 0.00 | 65 | 1007.7 |
| 20260508050012 | 10 | 53 | 3.2 | 11.3 | 0.00 | 0.33 | 0.00 | 63 | 1007.7 |
| 20260508045512 | 10 | 38 | 3.2 | 12.9 | 0.00 | 0.33 | 0.00 | 62 | 1007.3 |
| 20260508044511 | 10 | 283 | 3.2 | 11.3 | 0.00 | 0.33 | 0.00 | 63 | 1007.5 |
| 20260508044012 | 10 | 279 | 6.4 | 11.3 | 0.00 | 0.33 | 0.00 | 63 | 1007.5 |
| 20260508043512 | 10 | 284 | 3.2 | 9.7 | 0.00 | 0.33 | 0.00 | 61 | 1007.3 |
| 20260508042012 | 11 | 179 | 3.2 | 12.9 | 0.00 | 0.33 | 0.00 | 58 | 1007.0 |
| 20260508041512 | 11 | 181 | 3.2 | 22.5 | 0.00 | 0.33 | 0.00 | 57 | 1006.9 |
| 20260508040512 | 12 | 185 | 11.3 | 35.4 | 0.00 | 0.33 | 0.00 | 55 | 1006.4 |
| 20260508040011 | 12 | 192 | 9.7 | 27.4 | 0.00 | 0.33 | 0.00 | 55 | 1006.1 |
| 20260508035512 | 12 | 197 | 6.4 | 27.4 | 0.00 | 0.33 | 0.00 | 55 | 1006.0 |
| 20260508035011 | 12 | 196 | 14.5 | 25.7 | 0.00 | 0.33 | 0.00 | 56 | 1005.6 |
| 20260508034512 | 11 | 182 | 6.4 | 25.7 | 0.00 | 0.33 | 0.00 | 57 | 1005.8 |
| 20260508034012 | 11 | 177 | 14.5 | 25.7 | 0.00 | 0.33 | 0.00 | 58 | 1006.0 |
| 20260508033512 | 11 | 197 | 11.3 | 24.1 | 0.00 | 0.33 | 0.00 | 59 | 1006.3 |
| 20260508032012 | 11 | 193 | 12.9 | 24.1 | 0.00 | 0.33 | 0.00 | 60 | 1006.5 |
| 20260508031511 | 11 | 194 | 11.3 | 24.1 | 0.00 | 0.33 | 0.00 | 60 | 1006.0 |
| 20260508031012 | 11 | 187 | 17.7 | 24.1 | 0.00 | 0.33 | 0.00 | 61 | 1006.3 |
| 20260508030511 | 11 | 174 | 9.7 | 24.1 | 0.00 | 0.33 | 0.00 | 61 | 1006.2 |
| 20260508030012 | 11 | 189 | 9.7 | 20.9 | 0.00 | 0.33 | 0.00 | 61 | 1006.4 |
| 20260508025513 | 11 | 194 | 6.4 | 20.9 | 0.00 | 0.33 | 0.00 | 61 | 1006.4 |
| 20260508025011 | 11 | 185 | 4.8 | 17.7 | 0.00 | 0.33 | 0.33 | 60 | 1006.6 |
| 20260508024513 | 11 | 190 | 6.4 | 20.9 | 0.00 | 0.33 | 0.33 | 60 | 1006.6 |
| 20260508024011 | 11 | 157 | 6.4 | 25.7 | 0.00 | 0.33 | 0.33 | 60 | 1006.7 |
| 20260508023512 | 12 | 144 | 6.4 | 25.7 | 0.00 | 0.33 | 0.33 | 59 | 1006.9 |
| 20260508023011 | 12 | 181 | 6.4 | 22.5 | 0.00 | 0.33 | 0.33 | 59 | 1006.8 |
| 20260508022512 | 12 | 193 | 6.4 | 20.9 | 0.00 | 0.33 | 0.33 | 58 | 1006.8 |
| 20260508021512 | 12 | 185 | 8.0 | 24.1 | 0.00 | 0.33 | 0.33 | 60 | 1006.7 |
| 20260508021012 | 12 | 194 | 6.4 | 24.1 | 0.00 | 0.33 | 0.33 | 60 | 1006.9 |
| 20260508020511 | 12 | 201 | 4.8 | 17.7 | 0.00 | 0.33 | 0.33 | 60 | 1006.8 |
| 20260508020011 | 12 | 94 | 6.4 | 20.9 | 0.00 | 0.33 | 0.33 | 60 | 1006.7 |
| 20260508015011 | 12 | 148 | 8.0 | 20.9 | 0.00 | 0.33 | 0.33 | 61 | 1006.5 |
| 20260508014512 | 12 | 183 | 6.4 | 20.9 | 0.00 | 0.33 | 0.33 | 62 | 1006.4 |
| 20260508014013 | 12 | 194 | 4.8 | 20.9 | 0.00 | 0.33 | 0.33 | 62 | 1006.5 |
| 20260508013511 | 12 | 187 | 6.4 | 20.9 | 0.00 | 0.33 | 0.33 | 62 | 1006.7 |
| 20260508013011 | 12 | 181 | 6.4 | 20.9 | 0.00 | 0.33 | 0.33 | 62 | 1006.4 |
| 20260508012512 | 12 | 183 | 8.0 | 17.7 | 0.00 | 0.33 | 0.33 | 63 | 1006.5 |
| 20260508012011 | 12 | 187 | 6.4 | 17.7 | 0.00 | 0.33 | 0.33 | 63 | 1006.4 |
| 20260508011512 | 12 | 187 | 8.0 | 17.7 | 0.00 | 0.33 | 0.33 | 64 | 1006.2 |
| 20260508011011 | 12 | 140 | 4.8 | 12.9 | 0.00 | 0.33 | 0.33 | 65 | 1006.3 |
| 20260508010511 | 12 | 98 | 4.8 | 12.9 | 0.00 | 0.33 | 0.33 | 66 | 1006.2 |
| 20260508010011 | 12 | 147 | 3.2 | 11.3 | 0.00 | 0.33 | 0.33 | 66 | 1006.4 |
| 20260508005511 | 12 | 121 | 3.2 | 9.7 | 0.00 | 0.33 | 0.33 | 66 | 1006.2 |
| 20260508005012 | 12 | 130 | 3.2 | 6.4 | 0.00 | 0.33 | 0.33 | 66 | 1006.5 |
| 20260508004511 | 12 | 134 | 3.2 | 11.3 | 0.00 | 0.33 | 0.33 | 66 | 1006.0 |
| 20260508004011 | 12 | 126 | 3.2 | 11.3 | 0.00 | 0.33 | 0.33 | 66 | 1006.0 |
| 20260508003513 | 12 | 113 | 4.8 | 20.9 | 0.00 | 0.33 | 0.33 | 65 | 1006.0 |
| 20260508003011 | 13 | 156 | 4.8 | 20.9 | 0.00 | 0.33 | 0.33 | 63 | 1005.9 |
| 20260508002512 | 13 | 206 | 6.4 | 20.9 | 0.00 | 0.33 | 0.33 | 64 | 1006.0 |
| 20260508000512 | 13 | 188 | 6.4 | 14.5 | 0.00 | 0.33 | 0.33 | 65 | 1005.8 |
| 20260508000011 | 13 | 199 | 6.4 | 14.5 | 0.00 | 0.33 | 0.33 | 65 | 1005.6 |
| 20260507235511 | 13 | 208 | 8.0 | 14.5 | 0.00 | 0.33 | 0.33 | 64 | 1005.8 |
| 20260507235011 | 13 | 195 | 4.8 | 17.7 | 0.00 | 0.33 | 0.33 | 64 | 1005.8 |
| 20260507234511 | 13 | 199 | 3.2 | 17.7 | 0.00 | 0.33 | 0.33 | 63 | 1005.9 |
| 20260507234011 | 13 | 201 | 9.7 | 17.7 | 0.00 | 0.33 | 0.33 | 62 | 1005.9 |
| 20260507233512 | 13 | 189 | 6.4 | 17.7 | 0.00 | 0.33 | 0.33 | 62 | 1006.0 |
| 20260507233012 | 14 | 181 | 6.4 | 17.7 | 0.00 | 0.33 | 0.33 | 61 | 1006.1 |
| 20260507232011 | 14 | 205 | 8.0 | 17.7 | 0.00 | 0.33 | 0.33 | 61 | 1005.9 |
| 20260507231511 | 14 | 197 | 6.4 | 14.5 | 0.00 | 0.33 | 0.33 | 61 | 1006.1 |
| 20260507231011 | 14 | 213 | 3.2 | 14.5 | 0.00 | 0.33 | 0.33 | 61 | 1006.3 |
| 20260507230511 | 14 | 209 | 6.4 | 14.5 | 0.00 | 0.33 | 0.33 | 60 | 1006.1 |
| 20260507225512 | 14 | 202 | 6.4 | 20.9 | 0.00 | 0.33 | 0.33 | 61 | 1006.0 |
| 20260507225011 | 14 | 196 | 6.4 | 20.9 | 0.00 | 0.33 | 0.33 | 60 | 1005.8 |
| 20260507224511 | 14 | 197 | 11.3 | 20.9 | 0.00 | 0.33 | 0.33 | 61 | 1005.6 |
| 20260507224011 | 15 | 195 | 6.4 | 17.7 | 0.00 | 0.33 | 0.33 | 61 | 1005.7 |
| 20260507223511 | 15 | 194 | 8.0 | 17.7 | 0.00 | 0.33 | 0.33 | 61 | 1005.6 |
| 20260507223011 | 15 | 159 | 6.4 | 14.5 | 0.00 | 0.33 | 0.33 | 62 | 1005.8 |
| 20260507222512 | 15 | 134 | 4.8 | 14.5 | 0.00 | 0.33 | 0.33 | 63 | 1005.7 |
| 20260507222011 | 15 | 132 | 3.2 | 11.3 | 0.00 | 0.33 | 0.33 | 63 | 1005.4 |
| 20260507221011 | 15 | 139 | 3.2 | 11.3 | 0.00 | 0.33 | 0.33 | 63 | 1005.2 |
| 20260507220511 | 15 | 144 | 0.0 | 11.3 | 0.00 | 0.33 | 0.33 | 63 | 1005.3 |
| 20260507220011 | 15 | 138 | 6.4 | 12.9 | 0.00 | 0.33 | 0.33 | 62 | 1005.4 |
| 20260507215012 | 15 | 187 | 4.8 | 14.5 | 0.00 | 0.33 | 0.33 | 64 | 1004.9 |
| 20260507214511 | 15 | 175 | 4.8 | 14.5 | 0.00 | 0.33 | 0.33 | 65 | 1004.7 |